www.pogodaiklimat.ru

Погода и климат >> Архив погоды >> Сенегал >> Podor


ПОГОДА в Podor

  • Прогноз погоды в Podor
  • Монитор погоды в Podor
  • Климат города

АРХИВ ПОГОДЫ в Podor

Время (UTC), дата Ветер
(напр.,м/с)
 
Видим.   Явления Облачность Т
(С)
Тd
(С)
f
(%)
Тe
(С)
Тes
(С)
Комфортность P
(гПа)
Po
(гПа)
Тmin
(С)
Tmax
(С)
R
(мм)
R24
(мм)
S
(см)
12 12.07 ЮЗ 3 8000 м ясно +35.9 +18.6 36 +40 +57 опасность
солнечного
удара
1012.8 1012.0
15 12.07 ЮЗ 4 2000 м пыльный позёмок ясно +38.6 +18.1 30 +42 +53 опасность
перегрева
1009.7 1008.9
18 12.07 ЮЗ 3 3500 м пыльный позёмок ясно +36.4 +17.0 32 +39 +41 очень
душно
1009.1 1008.3 +39.3
21 12.07 ЮЗ 2 6000 м ясно +30.5 +15.2 40 +33 +33 душно 1009.9 1009.1
00 13.07 ЮЗ 2 8000 м ясно +26.7 +21.2 72 +34 +34 очень
душно
1011.0 1010.2
03 13.07 ЮЗ 3 8000 м ясно +25.0 +20.9 78 +31 +31 очень
душно
1010.5 1009.7
06 13.07 ЮЗ 1 8000 м 4/1 330 м
[St Ci sp]
+25.0 +21.3 80 +32 +32 очень
душно
1010.6 1009.8 +24.5
09 13.07 ЮЗ 2 10 км 5/5 330 м
[St]
+26.6 +21.2 72 +34 +37 очень
душно
1011.5 1010.7
12 13.07 В 1 10 км ясно +32.4 +21.6 53 +41 +67 опасность
перегрева
1011.3 1012.2
15 13.07 В 1 10 км ясно +36.0 +21.1 42 +43 +63 опасность
перегрева
1011.0 1010.2
18 13.07 В 1 10 км ясно +37.0 +21.2 40 +44 +47 опасность
перегрева
1009.3 1008.5 +38.0
21 13.07 ЮЗ 1 10 км ясно +35.0 +20.2 42 +41 +41 опасность
перегрева
1010.5 1009.7
00 14.07 СВ 1 10 км ясно +31.5 +19.6 49 +37 +37 очень
душно
1012.1 1011.3
03 14.07 ЮЗ 2 10 км 4/0
[Ac cast]
+27.0 +21.0 70 +34 +34 очень
душно
1011.8 1011.0
06 14.07 ЮЗ 1 10 км 1/0
[Ci sp]
+26.5 +21.3 73 +34 +34 очень
душно
1013.0 1012.2 +26.0
09 14.07 ЮЗ 1 10 км 4/0
[Ci sp]
+28.6 +21.8 67 +37 +45 очень
душно
1013.9 1013.1
12 14.07 ЮЗ 1 10 км ясно +35.0 +22.0 47 +44 +70 опасность
перегрева
1014.0 1013.2
15 14.07 С 1 10 км ясно +38.8 +21.9 38 +47 +68 опасность
перегрева
1012.1 1011.3
18 14.07 С 1 10 км 6/0
[Ac trans Ci sp]
+39.2 +22.0 37 +47 +49 опасность
перегрева
1010.3 1009.5 +40.9
21 14.07 З 2 10 км ясно +35.0 +19.1 39 +40 +40 очень
душно
1011.8 1011.0
00 15.07 З 2 10 км ясно +31.1 +19.5 50 +37 +37 очень
душно
1012.8 1012.0
03 15.07 ЮЗ 2 10 км ясно +29.3 +19.8 57 +36 +36 очень
душно
1011.2 1010.4
06 15.07 ЮЗ 2 10 км 4/0
[Ac As]
+22.8 +20.2 85 +29 +29 очень
душно
1010.9 1010.1 +28.1
09 15.07 ЮЗ 1 10 км 3/0
[Ac trans]
+30.0 +21.5 60 +38 +44 очень
душно
1011.3 1010.5
12 15.07 ЮЗ 2 8000 м 3/0
[Ci sp]
+36.2 +19.4 37 +41 +62 опасность
перегрева
1009.7 1008.9
15 15.07 З 2 7000 м ясно +39.8 +18.4 29 +43 +62 опасность
перегрева
1008.2 1007.4
18 15.07 З 2 7000 м ясно +36.0 +17.4 33 +39 +42 очень
душно
1007.2 1006.4 +40.5
21 15.07 ЮЗ 2 8000 м ясно +29.2 +21.5 63 +37 +37 очень
душно
1009.1 1008.3
00 16.07 ЮЗ 2 8000 м ясно +27.0 +21.8 73 +35 +35 очень
душно
1010.1 1009.3
03 16.07 ЮЗ 1 8000 м ясно +25.8 +21.6 78 +33 +33 очень
душно
1009.5 1008.7
06 16.07 ЮЗ 2 8000 м 6/0
[Ac trans Ci sp]
+25.9 +21.6 77 +33 +33 очень
душно
1008.8 1008.0 +25.2
09 16.07 ЮЗ 1 10 км 8/4 330 м
[St Ci sp]
+26.8 +21.4 72 +34 +38 очень
душно
1009.8 1009.0
12 16.07 ЮЗ 1 8000 м ясно +31.0 +21.6 57 +39 +63 опасность
солнечного
удара
1009.7 1008.9
15 16.07 ЮЗ 2 7000 м ясно +36.0 +21.0 42 +43 +62 опасность
перегрева
1008.1 1007.3
18 16.07 ЮЗ 2 8000 м ясно +36.0 +19.7 39 +42 +44 опасность
перегрева
1007.2 1006.4 +37.3
21 16.07 ЮЗ 1 8000 м ясно +31.5 +20.3 51 +38 +38 очень
душно
1009.1 1008.3
00 17.07 ЮЗ 3 9000 м ясно +27.5 +22.1 72 +36 +36 очень
душно
1011.1 1010.3
03 17.07 ЮЗ 2 10 км ясно +26.5 +22.1 77 +34 +34 очень
душно
1010.2 1009.4
06 17.07 ЮЗ 1 10 км 4/0
[Ci sp]
+25.9 +22.2 80 +34 +34 очень
душно
1010.9 1010.1 +25.5
09 17.07 ЮЗ 2 10 км 8/0
[Ac cast Ci sp]
+27.2 +22.2 74 +35 +40 очень
душно
1011.5 1010.7
12 17.07 ЮЗ 1 10 км ясно +32.8 +20.7 49 +40 +64 опасность
солнечного
удара
1011.5 1010.7
15 17.07 С 2 7000 м ясно +36.5 +19.4 37 +42 +60 опасность
перегрева
1009.4 1008.6
18 17.07 ЮЗ 1 7000 м ясно +36.5 +19.4 37 +42 +45 опасность
перегрева
1007.6 1006.8 +37.7
21 17.07 ЮЗ 2 8000 м ясно +32.0 +22.4 57 +41 +41 опасность
перегрева
1009.9 1009.1
00 18.07 З 1 10 км ясно +28.5 +22.0 68 +37 +37 очень
душно
1012.3 1011.5
03 18.07 ЮЗ 1 10 км ясно +26.8 +22.6 78 +35 +35 очень
душно
1011.5 1010.7
06 18.07 З 1 10 км ясно +26.2 +22.7 81 +35 +35 очень
душно
1011.7 1010.9 +25.6
12 18.07 ЮЗ 1 10 км 3/0
[Ci sp]
+34.0 +22.5 51 +43 +66 опасность
перегрева
1012.3 1011.5
15 18.07 ЮЗ 1 10 км 4/0
[Ci sp]
+38.0 +21.3 38 +45 +63 опасность
перегрева
1010.6 1009.8
18 18.07 Ю 1 10 км 8/0
[Ac cast]
+37.8 +20.6 37 +44 +45 опасность
перегрева
1009.5 1008.7 +39.7
21 18.07 Ю 1 10 км зарница 1/1 900 м
[Cb calv Ac cast]
+34.7 +21.3 46 +42 +42 опасность
перегрева
1010.5 1009.7
00 19.07 ЮЗ 1 10 км зарница 3/3 900 м
[Cb calv]
+29.5 +22.2 65 +38 +38 очень
душно
1012.9 1012.1
03 19.07 ЮЗ 2 10 км гроза без осадков 4/1 900 м
[Cb cap Ac As]
+28.0 +22.4 72 +37 +37 очень
душно
1012.3 1011.5
06 19.07 ЮЗ 2 10 км гроза, ливневой дождь 9/1 900 м
[Cb cap Ac As]
+22.2 +21.9 98 +29 +29 очень
душно
1015.1 1014.3 +21.9 21

 

Местоположение метеостанции Podor (Сенегал): широта 16.65 долгота -14.96 высота над уровнем моря 7 м.

В архиве по умолчанию представлена погода в Podor за последнюю неделю. Архивные данные за месяц целиком и за предыдущие месяцы, начиная с января 2011 года, Вы можете получить, выбрав интересующий диапазон дат из раскрывающегося списка и нажав кнопку "Ввод!".


*Определитесь, кто Вы:
робот инопланетянин человек

Внимание! Время в таблицах - всемирное. Для получения местного времени необходимо прибавить поправку, которая в Podor равна 0 ч.

Смотрите также архив погоды в соседних городах и на ближайших метеорологических станциях:

Погода в Rosso (Мавритания) (92 км)
Погода в Boutilimit (Мавритания) (102 км)
Погода в Linguere (Сенегал) (142 км)
Погода в Kaedi (Мавритания) (164 км)
Погода в Saint-Louis (Сенегал) (172 км)
Погода в Nouakchott (Мавритания) (192 км)
Погода в Matam (Сенегал) (214 км)
Погода в Diourbel (Сенегал) (261 км)
Погода в Kaolack (Сенегал) (304 км)
Погода в Kauur (Гамбия) (329 км)

Пояснения к столбцам:

Ветер - указаны скорость ветра в м/с - средняя за 10 мин, порывы в срок и между сроками (в фигурных скобках) и направление, откуда дует ветер: С - северный, СВ - северо-восточный, В - восточный, ЮВ - юго-восточный, Ю - южный, ЮЗ - юго-западный, З - западный, СЗ - северо-западный.
Видимость - горизонтальная дальность видимости в метрах или километрах. При видимости от 1 до 10 км при отсутствии осадков обычно наблюдается дымка, при ухудшении видимости до 1 км и менее - туман. В сухую погоду видимость может ухудшаться дымом, пылью или мглою.
Явления - указаны атмосферные явления, наблюдавшиеся в срок или в последний час перед сроком; фигурными скобками обозначены явления, наблюдавшиеся между сроками (за 1-3 часа до срока); квадратными скобками обозначены град или гололедные отложения с указанием их диаметра в мм.
Облачность - указаны через наклонную черту общая и нижняя облачность в баллах и высота нижней границы облаков в метрах; квадратными скобками обозначены формы облаков: Ci - перистые, Cs - перисто-слоистые, Cc - перисто-кучевые, Ac - высококучевые, As - высокослоистые, Sc - слоисто-кучевые, Ns - слоисто-дождевые, Cu - кучевые, Cb - кучево-дождевые. Подробнее классификацию облаков см. в Атласе облаков (PDF).
T - Температура воздуха - температура, измеренная на высоте 2 м над землей.
Td - Температура точки росы - температура, при понижении до которой содержащийся в воздухе водяной пар достигнет насыщения.
f - Относительная влажность воздуха - влажноcть воздуха, измеренная на высоте 2 м над землей.
Te - Эффективная температура - температура, которую ощущает одетый по сезону человек в тени. Характеристика душности погоды. При расчете учитывается влияние влажности воздуха и скорости ветра на теплоощущения человека.
Tes - Эффективная температура на солнце - температура, которую ощущает человек, с поправкой на солнечный нагрев. Характеристика знойности погоды. Зависит от высоты солнца над горизонтом, облачности и скорости ветра. Ночью, в пасмурную погоду, а также при ветре 12 м/с и более поправка равна нулю.
P - Атмосферное давление - приведенное к уровню моря атмосферное давление.
Po - Атмосферное давление - измеренное на уровне метеостанции атмосферное давление.
Tmin - Минимальная температура - минимум температуры воздуха на высоте 2 м над землей.
Tmax - Максимальная температура - максимум температуры воздуха на высоте 2 м над землей.
R - Количество осадков - Количество выпавших осадков за период времени, мм. При наведении курсора мыши на число - период времени, за который выпало указанное количество осадков.
R24 - Количество осадков - Количество выпавших осадков за 24 часа, мм.
S - Снежный покров - Высота снежного покрова, см. При наведении курсора мыши на число - состояние снежного покрова и степень покрытия местности в баллах.